Stations météo

Publicité
St-Dizier, France (7169): Température de l'air & dewpoint: 18.02.2019 00:00:00 - 24.02.2019 00:00:00 (CET)St-Dizier, France (7169): Température de l'air 5cm: 18.02.2019 00:00:00 - 24.02.2019 00:00:00 (CET)St-Dizier, France (7169): Température de l'air -20cm & Température de l'air -100cm: 18.02.2019 00:00:00 - 24.02.2019 00:00:00 (CET)St-Dizier, France (7169): Vitesse du vent & gusts: 18.02.2019 00:00:00 - 24.02.2019 00:00:00 (CET)St-Dizier, France (7169): Direction du vent: 18.02.2019 00:00:00 - 24.02.2019 00:00:00 (CET)St-Dizier, France (7169): reduced air pressure: 18.02.2019 00:00:00 - 24.02.2019 00:00:00 (CET)St-Dizier, France (7169): visibility: 18.02.2019 00:00:00 - 24.02.2019 00:00:00 (CET)St-Dizier, France (7169): Ensoleillement: 18.02.2019 00:00:00 - 24.02.2019 00:00:00 (CET)St-Dizier, France (7169): Quantités de précipitations: 18.02.2019 00:00:00 - 24.02.2019 00:00:00 (CET)
Date & Time tt [°C] td [°C] tt 5cm [°C] tt -20cm [°C] tt -100cm [°C] ff [km/h] ff [knt] fx [km/h] fx [knt] dd ppp [hPa] vv [km] sd [min] rr [mm]
24.02.2019 00:00:00 6,9 -9,1 5,8 7,3 7,0 19 10 33 18 E 1034,2 49 0 0,0
23.02.2019 23:00:00 7,3 -7,6 6,1 7,3 7,0 17 9 31 17 E 1034,0 43 0 0,0
23.02.2019 22:00:00 8,4 -5,8 7,2 7,2 7,0 17 9 42 23 E 1033,6 37 0 0,0
23.02.2019 21:00:00 9,5 -4,9 8,3 7,2 7,0 22 12 36 20 E 1033,4 39 0 0,0
23.02.2019 20:00:00 10,4 -4,8 9,4 7,1 7,0 24 13 39 21 E 1033,4 48 0 0,0
23.02.2019 19:00:00 11,5 -4,2 10,3 7,0 7,0 22 12 36 19 ENE 1033,1 52 0 0,0
23.02.2019 18:00:00 13,2 -3,6 12,3 6,9 7,0 22 12 34 18 ENE 1032,3 50 49 0,0
23.02.2019 17:00:00 14,6 -3,7 15,5 6,8 7,0 23 13 40 22 E 1032,3 43 60 0,0
23.02.2019 16:00:00 14,4 -3,9 15,7 6,7 7,0 31 17 42 23 E 1032,6 45 60 0,0
23.02.2019 15:00:00 15,4 -4,0 17,6 6,6 7,0 22 12 35 19 E 1032,9 14 60 0,0
23.02.2019 14:00:00 14,2 -1,5 15,8 6,5 7,0 21 11 33 18 E 1033,0 14 60 0,0
23.02.2019 13:00:00 12,9 -0,7 14,6 6,5 7,0 19 10 31 17 E 1033,8 21 60 0,0
23.02.2019 12:00:00 10,7 0,4 11,8 6,6 7,0 23 12 40 22 ENE 1034,2 20 60 0,0
23.02.2019 11:00:00 9,6 1,0 10,6 6,7 7,0 29 15 39 21 E 1034,3 11 60 0,0
23.02.2019 10:00:00 8,0 2,0 6,6 6,8 6,9 17 9 29 16 E 1034,3 15 57 0,0
23.02.2019 09:00:00 6,0 2,6 3,6 6,9 7,0 15 8 22 12 E 1034,8 13 27 0,0
23.02.2019 08:00:00 3,2 1,1 0,5 7,0 7,0 6 4 12 6 ENE 1035,0 8 2 0,0
23.02.2019 07:00:00 3,5 0,5 1,4 7,1 6,9 4 2 12 7 ENE 1034,9 11 0 0,0
23.02.2019 06:00:00 5,3 1,8 4,2 7,2 6,9 7 4 12 6 NE 1035,1 14 0 0,0
23.02.2019 05:00:00 5,9 2,2 3,6 7,3 7,0 6 3 16 8 E 1035,0 16 0 0,0
23.02.2019 04:00:00 5,5 1,8 3,0 7,4 6,9 6 3 11 6 E 1035,2 17 0 0,0
23.02.2019 03:00:00 6,2 2,1 2,6 7,5 6,9 6 3 12 6 E 1035,2 19 0 0,0
23.02.2019 02:00:00 6,0 1,9 2,8 7,5 6,9 8 4 13 7 E 1035,8 18 0 0,0
23.02.2019 01:00:00 5,8 3,0 3,7 7,6 6,9 10 5 16 9 NNE 1035,9 11 0 0,0
23.02.2019 00:00:00 7,0 2,1 4,2 7,6 6,9 8 4 12 7 E 1035,6 12 0 0,0
22.02.2019 23:00:00 6,8 1,9 5,1 7,5 6,9 6 4 13 7 ENE 1035,8 13 0 0,0
22.02.2019 22:00:00 7,2 4,3 5,4 7,5 6,9 3 2 14 8 ESE 1035,6 10 0 0,0
22.02.2019 21:00:00 8,8 3,6 6,5 7,4 6,9 13 7 16 9 ENE 1035,3 11 0 0,0
22.02.2019 20:00:00 11,2 4,9 9,7 7,2 6,9 11 6 17 9 ENE 1035,0 10 0 0,0
22.02.2019 19:00:00 11,6 4,6 9,2 7,0 6,9 12 6 19 10 ENE 1034,7 13 0 0,0
22.02.2019 18:00:00 14,2 5,5 13,0 6,8 6,9 11 6 22 12 E 1034,1 17 48 0,0
22.02.2019 17:00:00 15,5 6,5 16,8 6,5 6,9 13 7 25 14 E 1033,8 17 60 0,0
22.02.2019 16:00:00 16,4 6,8 18,5 6,3 6,9 16 9 24 13 E 1034,0 19 60 0,0
22.02.2019 15:00:00 16,7 6,5 19,3 6,1 6,9 9 5 21 11 ENE 1034,0 15 60 0,0
22.02.2019 14:00:00 15,9 5,5 18,1 6,0 6,9 4 2 16 8 N 1034,6 11 60 0,0
22.02.2019 13:00:00 13,8 6,6 16,8 5,9 6,9 9 5 17 9 W 1034,9 9 60 0,0
22.02.2019 12:00:00 12,2 5,8 11,6 5,9 6,8 4 2 6 3 W 1035,4 8 50 0,0
22.02.2019 11:00:00 8,9 4,9 8,4 6,0 6,8 2 1 6 3 NNE 1035,9 6 14 0,0
22.02.2019 10:00:00 6,2 3,9 5,7 6,1 6,9 0 0 4 2 N 1035,8 5 1 0,0
22.02.2019 09:00:00 4,4 2,9 3,0 6,2 6,9 0 0 4 2 N 1035,7 5 0 0,0
22.02.2019 08:00:00 3,0 2,1 1,7 6,3 6,9 3 2 7 4 E 1035,0 2,2 0 0,0
22.02.2019 07:00:00 2,0 1,3 0,6 6,4 6,9 5 3 8 4 E 1034,7 4,3 0 0,0
22.02.2019 06:00:00 0,7 0,0 -0,9 6,5 6,8 8 4 10 5 E 1034,8 3,5 0 0,0
22.02.2019 05:00:00 1,0 0,3 -0,5 6,6 6,8 5 3 7 4 ESE 1033,7 3,0 0 0,0
22.02.2019 04:00:00 1,6 0,7 0,2 6,7 6,9 5 3 7 4 ESE 1033,4 3,1 0 0,0
22.02.2019 03:00:00 2,0 1,1 0,7 6,7 6,8 5 3 8 4 E 1033,6 4,0 0 0,0
22.02.2019 02:00:00 2,4 1,4 1,3 6,8 6,8 6 4 9 5 E 1033,5 4,3 0 0,0
22.02.2019 01:00:00 2,8 1,8 1,6 6,8 6,8 6 3 8 4 E 1033,5 3,7 0 0,0
22.02.2019 00:00:00 3,6 2,4 2,4 6,8 6,8 5 3 7 4 E 1033,0 6 0 0,0
21.02.2019 23:00:00 3,9 2,4 2,5 6,8 6,8 5 3 8 4 ESE 1032,5 5 0 0,0
21.02.2019 22:00:00 4,7 3,0 3,2 6,8 6,8 5 3 6 4 E 1032,0 8 0 0,0
21.02.2019 21:00:00 5,9 3,4 4,1 6,7 6,8 5 3 8 5 E 1031,6 11 0 0,0
21.02.2019 20:00:00 7,1 3,7 4,7 6,5 6,8 0 0 5 3 N 1031,0 12 0 0,0
21.02.2019 19:00:00 8,9 3,9 6,6 6,3 6,8 3 2 7 4 SSW 1030,3 16 0 0,0
21.02.2019 18:00:00 12,8 4,2 10,7 6,0 6,8 4 2 9 5 SW 1029,5 22 37 0,0
21.02.2019 17:00:00 15,0 4,9 16,4 5,8 6,8 6 4 16 9 WSW 1029,0 20 60 0,0
21.02.2019 16:00:00 15,0 4,9 17,6 5,5 6,8 11 6 16 9 SW 1028,7 17 60 0,0
21.02.2019 15:00:00 14,8 5,3 18,3 5,4 6,8 8 4 14 8 SW 1029,1 20 60 0,0
21.02.2019 14:00:00 14,5 4,8 18,3 5,2 6,8 6 3 12 7 W 1029,1 19 60 0,0
21.02.2019 13:00:00 13,7 5,3 15,9 5,2 6,8 4 2 11 6 SW 1029,3 17 57 0,0
21.02.2019 12:00:00 11,8 5,0 11,9 5,2 6,8 4 2 8 5 WSW 1029,5 16 53 0,0
21.02.2019 11:00:00 10,5 3,7 9,9 5,4 6,8 3 2 7 4 W 1029,4 13 60 0,0
21.02.2019 10:00:00 6,3 3,3 3,4 5,5 6,8 7 4 9 5 SE 1029,0 7 51 0,0
21.02.2019 09:00:00 2,2 1,2 -0,9 5,6 6,8 5 3 10 6 E 1029,7 4,3 20 0,0
21.02.2019 08:00:00 0,2 -0,4 -2,1 5,7 6,8 7 4 9 5 E 1028,8 2,9 0 0,0
21.02.2019 07:00:00 -0,3 -1,0 -2,0 5,8 6,8 6 3 11 6 E 1028,4 2,4 0 0,0
21.02.2019 06:00:00 0,0 -0,6 -2,0 5,9 6,8 8 4 13 7 E 1028,2 2,8 0 0,0
21.02.2019 05:00:00 -0,4 -1,5 -1,9 6,0 6,8 3 2 6 4 SE 1028,3 2,4 0 0,0
21.02.2019 04:00:00 1,5 0,9 -1,3 6,1 6,8 5 3 9 5 ENE 1027,9 4,1 0 0,0
21.02.2019 03:00:00 0,8 -0,1 -0,6 6,2 6,8 7 4 9 5 E 1027,8 2,3 0 0,0
21.02.2019 02:00:00 1,3 0,4 -0,5 6,2 6,8 9 5 10 6 E 1027,5 3,7 0 0,0
21.02.2019 01:00:00 1,6 0,9 -0,1 6,3 6,8 9 5 10 6 E 1027,4 3,0 0 0,0
21.02.2019 00:00:00 2,2 1,3 0,3 6,3 6,8 4 2 7 4 E 1027,2 2,8 0 0,0
20.02.2019 23:00:00 2,7 1,7 0,5 6,4 6,8 2 1 9 5 ESE 1026,7 4,3 0 0,0
20.02.2019 22:00:00 2,8 1,5 0,7 6,3 6,8 5 3 6 3 ESE 1026,5 4,2 0 0,0
20.02.2019 21:00:00 4,1 2,3 2,5 6,2 6,8 4 2 9 5 E 1026,3 7 0 0,0
20.02.2019 20:00:00 5,4 2,7 3,6 6,0 6,8 4 2 5 3 E 1025,9 10 0 0,0
20.02.2019 19:00:00 7,4 2,7 4,7 5,9 6,8 0 0 3 2 N 1025,4 19 0 0,0
20.02.2019 18:00:00 11,1 3,9 10,3 5,7 6,8 3 2 8 4 NW 1024,9 24 36 0,0
20.02.2019 17:00:00 13,1 4,0 13,8 5,5 6,8 4 2 9 5 WNW 1024,4 29 60 0,0
20.02.2019 16:00:00 13,5 3,8 15,7 5,3 6,8 6 3 10 5 SW 1024,7 31 60 0,0
20.02.2019 15:00:00 12,7 5,1 15,8 5,2 6,8 8 4 14 8 W 1024,9 20 60 0,0
20.02.2019 14:00:00 12,2 4,9 12,3 5,2 6,8 5 3 14 8 ENE 1024,9 17 33 0,0
20.02.2019 13:00:00 9,8 5,0 10,2 5,2 6,8 0 0 5 3 N 1025,4 16 0 0,0
20.02.2019 12:00:00 8,0 4,6 7,5 5,2 6,7 0 0 13 7 N 1025,8 9 0 0,0
20.02.2019 11:00:00 5,9 3,9 5,0 5,4 6,7 9 5 11 6 E 1025,3 9 0 0,0
20.02.2019 10:00:00 3,6 2,4 2,3 5,5 6,7 6 4 12 6 E 1025,2 7 7 0,0
20.02.2019 09:00:00 1,6 1,0 -1,2 5,6 6,8 8 5 10 6 E 1024,9 6 7 0,0
20.02.2019 08:00:00 -0,2 -0,8 -2,3 5,7 6,7 7 4 10 6 E 1024,6 4,5 0 0,0
20.02.2019 07:00:00 -0,8 -1,5 -2,5 5,8 6,7 6 3 9 5 E 1024,1 1,6 0 0,0
20.02.2019 06:00:00 -0,3 -0,9 -2,0 5,9 6,7 8 4 10 5 E 1023,9 4,1 0 0,0
20.02.2019 05:00:00 0,2 -0,4 -1,5 6,0 6,7 8 4 11 6 E 1023,6 4,9 0 0,0
20.02.2019 04:00:00 1,3 0,6 -0,6 6,1 6,7 7 4 10 5 E 1023,7 7 0 0,0
20.02.2019 03:00:00 0,7 0,0 -0,7 6,2 6,7 7 4 10 6 E 1024,0 4,9 0 0,0
20.02.2019 02:00:00 1,0 0,3 -0,7 6,3 6,7 6 3 10 5 E 1024,1 6 0 0,0
20.02.2019 01:00:00 1,3 0,6 -0,3 6,4 6,7 6 3 10 5 E 1024,1 7 0 0,0
20.02.2019 00:00:00 1,6 0,9 0,1 6,5 6,7 7 4 9 5 E 1023,9 8 0 0,0
19.02.2019 23:00:00 1,5 0,6 -0,3 6,5 6,7 5 3 8 5 E 1023,8 10 0 0,0
19.02.2019 22:00:00 2,0 1,0 0,4 6,5 6,7 6 3 8 5 E 1024,0 9 0 0,0
19.02.2019 21:00:00 2,6 1,1 1,2 6,5 6,7 6 3 7 4 E 1023,8 13 0 0,0
19.02.2019 20:00:00 3,9 2,4 2,1 6,4 6,7 5 3 5 3 E 1023,5 13 0 0,0
19.02.2019 19:00:00 5,5 3,0 3,4 6,2 6,7 0 0 9 5 N 1023,1 29 0 0,0
19.02.2019 18:00:00 9,0 3,2 7,2 6,1 6,7 4 2 8 4 WNW 1022,5 48 16 0,0
19.02.2019 17:00:00 10,0 3,0 9,8 5,9 6,7 5 3 11 6 SW 1022,5 60 9 0,0
19.02.2019 16:00:00 11,1 3,4 11,7 5,8 6,7 9 5 16 9 SSW 1022,7 27 47 0,0
19.02.2019 15:00:00 10,9 3,2 11,9 5,7 6,7 4 2 10 6 WNW 1022,7 43 26 0,0
19.02.2019 14:00:00 9,2 4,4 9,6 5,7 6,7 3 1 7 4 SSW 1023,2 35 0 0,0
19.02.2019 13:00:00 8,3 5,2 8,1 5,7 6,7 3 2 8 5 S 1023,5 17 0 0,0
19.02.2019 12:00:00 7,1 5,2 6,4 5,7 6,7 5 3 7 4 S 1024,1 9 0 0,0
19.02.2019 11:00:00 6,1 4,6 5,6 5,7 6,7 6 3 9 5 W 1023,7 7 0 0,0
19.02.2019 10:00:00 5,6 4,1 4,9 5,7 6,7 3 2 10 5 SW 1023,3 9 0 0,0
19.02.2019 09:00:00 5,2 3,8 4,6 5,8 6,7 4 2 9 5 S 1022,6 9 0 0,2
19.02.2019 08:00:00 5,5 2,8 4,6 5,8 6,6 5 3 11 6 SW 1021,9 7 0 0,2
19.02.2019 07:00:00 6,3 1,4 5,3 5,9 6,6 6 3 12 7 WSW 1021,0 23 0 0,0
19.02.2019 06:00:00 6,6 0,9 4,3 6,0 6,6 7 4 11 6 SW 1020,4 40 0 0,0
19.02.2019 05:00:00 5,2 0,6 3,5 6,1 6,7 4 2 8 4 S 1020,1 36 0 0,0
19.02.2019 04:00:00 5,3 0,5 2,4 6,1 6,6 4 2 11 6 S 1019,6 41 0 0,0
19.02.2019 03:00:00 3,0 0,4 0,5 6,2 6,7 3 2 9 5 ESE 1019,7 15 0 0,0
19.02.2019 02:00:00 2,1 -1,0 0,7 6,3 6,6 7 4 9 5 E 1019,9 12 0 0,0
19.02.2019 01:00:00 4,3 0,1 1,7 6,3 6,6 0 0 5 3 N 1019,5 13 0 0,0
19.02.2019 00:00:00 5,9 -0,2 3,0 6,3 6,6 4 2 5 3 ESE 1019,1 23 0 0,0
18.02.2019 23:00:00 6,0 -0,5 3,3 6,4 6,6 4 2 7 4 E 1019,1 25 0 0,0
18.02.2019 22:00:00 7,3 0,3 3,9 6,3 6,6 5 3 7 4 E 1018,9 29 0 0,0
18.02.2019 21:00:00 7,6 -0,6 4,9 6,2 6,6 4 2 10 5 S 1018,7 54 0 0,0
18.02.2019 20:00:00 6,9 -0,3 4,9 6,1 6,6 5 3 9 5 ESE 1018,4 38 0 0,0
18.02.2019 19:00:00 8,1 -0,7 6,0 5,9 6,6 4 2 6 3 SE 1018,4 60 0 0,0
18.02.2019 18:00:00 12,5 0,6 8,6 5,7 6,6 2 1 11 6 WSW 1017,7 60 41 0,0
18.02.2019 17:00:00 15,1 1,2 16,0 5,5 6,6 2 1 9 5 NW 1017,6 60 58 0,0
18.02.2019 16:00:00 14,8 0,2 15,3 5,3 6,6 4 2 14 8 W 1017,9 49 50 0,0
18.02.2019 15:00:00 14,5 1,0 15,2 5,2 6,6 9 5 21 12 WSW 1018,1 47 45 0,0
18.02.2019 14:00:00 13,3 1,0 15,0 5,1 6,6 11 6 22 12 SW 1019,0 50 47 0,0
18.02.2019 13:00:00 12,4 0,2 15,5 5,1 6,6 16 8 26 14 SSW 1019,6 26 58 0,0
18.02.2019 12:00:00 11,9 0,0 15,1 5,1 6,6 15 8 29 16 SSW 1020,1 38 60 0,0
18.02.2019 11:00:00 11,0 0,7 11,2 5,2 6,6 13 7 24 13 S 1020,3 20 60 0,0
18.02.2019 10:00:00 9,2 1,4 6,3 5,3 6,6 13 7 20 11 SSE 1020,7 34 45 0,0
18.02.2019 09:00:00 6,1 0,6 2,1 5,5 6,6 7 4 14 7 E 1021,0 33 13 0,0
18.02.2019 08:00:00 2,7 -0,9 -0,9 5,6 6,6 8 4 13 7 E 1021,0 23 0 0,0
18.02.2019 07:00:00 1,2 -2,2 -0,4 5,7 6,6 11 6 16 8 E 1021,0 25 0 0,0
18.02.2019 06:00:00 2,7 -0,8 -1,3 5,9 6,6 13 7 17 9 E 1021,2 23 0 0,0
18.02.2019 05:00:00 1,3 -2,3 -0,6 6,0 6,6 8 5 10 6 E 1021,4 23 0 0,0
18.02.2019 04:00:00 1,8 -1,5 -0,6 6,1 6,6 6 3 12 6 E 1021,4 22 0 0,0
18.02.2019 03:00:00 1,5 -1,7 -0,9 6,1 6,6 9 5 13 7 E 1021,7 20 0 0,0
18.02.2019 02:00:00 2,8 -0,8 -0,6 6,2 6,6 10 5 14 8 E 1021,7 16 0 0,0
18.02.2019 01:00:00 1,6 -1,1 0,1 6,3 6,6 12 6 14 8 E 1021,9 13 0 0,0
18.02.2019 00:00:00 2,3 -1,3 -0,4 6,3 6,6 10 5 13 7 E 1022,0 19 0 0,0

tt = Température de l'air
td = dewpoint
tt 5cm = Température de l'air 5cm
tt -20cm = Température de l'air -20cm
tt -100cm = Température de l'air -100cm
ff = Vitesse du vent
fx = gusts
dd = Direction du vent
ppp = reduced air pressure
vv = visibility
sd = Ensoleillement
rr = Quantités de précipitations

stations d'obs. à proximité